SUMZM ENTC-ENSB

Flight info

Callsign SUMZM
Flight time N/A
Altitude 22000
Route LOMVI P853 UVSAS DCT BABAM DCT EDIKI DCT RARAG
Aircraft PC12/L-SDFGRWY/S

Departure

Time 2026-04-30 13:19
Airport Tromsø Airport (ENTC)

Arrival

Time N/A
Airport Svalbard Airport, Longyear (ENSB)
Time Latitude Longitude Altitude Speed Heading
2026-04-30 12:54 69.68718 18.91502 17 ft 0 kts 13°
2026-04-30 13:13 69.68748 18.91523 16 ft 6 kts 14°
2026-04-30 13:13 69.68791 18.91572 16 ft 7 kts 53°
2026-04-30 13:13 69.68777 18.91827 16 ft 5 kts 98°
2026-04-30 13:14 69.68771 18.91917 16 ft 0 kts 105°
2026-04-30 13:17 69.68770 18.91925 16 ft 2 kts 106°
2026-04-30 13:17 69.68758 18.92073 16 ft 13 kts 96°
2026-04-30 13:17 69.68718 18.92146 18 ft 0 kts 194°
2026-04-30 13:18 69.68180 18.91803 55 ft 78 kts 193°
2026-04-30 13:18 69.67614 18.91537 289 ft 88 kts 195°
2026-04-30 13:19 69.66966 18.91092 537 ft 101 kts 198°
2026-04-30 13:19 69.66241 18.90534 789 ft 122 kts 197°
2026-04-30 13:19 69.65322 18.89768 1077 ft 149 kts 197°
2026-04-30 13:19 69.64255 18.89067 1505 ft 166 kts 194°
2026-04-30 13:20 69.63087 18.88353 1931 ft 177 kts 195°
2026-04-30 13:20 69.61853 18.87558 2328 ft 186 kts 197°
2026-04-30 13:20 69.60577 18.86712 2711 ft 189 kts 198°
2026-04-30 13:20 69.59433 18.85016 3098 ft 185 kts 221°
2026-04-30 13:21 69.58628 18.82244 3498 ft 182 kts 241°
2026-04-30 13:21 69.58247 18.78779 3873 ft 180 kts 262°
2026-04-30 13:21 69.58339 18.75270 4258 ft 179 kts 279°
2026-04-30 13:22 69.58932 18.68423 5047 ft 175 kts 288°
2026-04-30 13:22 69.59655 18.65570 5429 ft 183 kts 312°
2026-04-30 13:22 69.62193 18.63822 6211 ft 211 kts
2026-04-30 13:23 69.63537 18.65665 6590 ft 216 kts 22°
2026-04-30 13:23 69.66138 18.70087 7339 ft 219 kts 22°
2026-04-30 13:24 69.68732 18.74421 8100 ft 215 kts 22°
2026-04-30 13:24 69.71312 18.78736 8871 ft 217 kts 22°
2026-04-30 13:25 69.73907 18.83091 9692 ft 216 kts 22°
2026-04-30 13:25 69.76509 18.87472 10446 ft 220 kts 22°
2026-04-30 13:26 69.80516 18.94243 11566 ft 224 kts 21°
2026-04-30 13:26 69.83287 18.97750 12340 ft 208 kts 356°
2026-04-30 13:27 69.86112 18.98056 13133 ft 206 kts 351°
2026-04-30 13:28 69.90388 18.98491 14286 ft 203 kts 349°
2026-04-30 13:28 69.93208 18.98760 15021 ft 201 kts 350°
2026-04-30 13:28 69.94604 18.98894 15402 ft 201 kts 350°
2026-04-30 13:29 69.97417 18.99164 16159 ft 204 kts 350°
2026-04-30 13:29 70.00242 18.99441 16938 ft 202 kts 349°
2026-04-30 13:30 70.04455 18.99851 18147 ft 201 kts 349°
2026-04-30 13:31 70.07245 19.00119 18886 ft 200 kts 348°
2026-04-30 13:31 70.11335 19.00253 19980 ft 195 kts 346°
2026-04-30 13:32 70.14012 19.00311 20746 ft 191 kts 345°
2026-04-30 13:32 70.16684 19.00339 21419 ft 194 kts 345°
2026-04-30 13:33 70.19387 19.00392 21949 ft 193 kts 345°
2026-04-30 13:33 70.22211 19.00403 21997 ft 213 kts 346°
2026-04-30 13:34 70.23722 19.00436 21998 ft 220 kts 346°
2026-04-30 13:34 70.28460 19.00524 21991 ft 233 kts 347°
2026-04-30 13:35 70.30072 19.00552 21988 ft 235 kts 347°
2026-04-30 13:35 70.33372 19.00607 21994 ft 237 kts 347°
2026-04-30 13:36 70.36659 19.00658 21994 ft 238 kts 347°
2026-04-30 13:36 70.38308 19.00684 21988 ft 238 kts 347°
2026-04-30 13:36 70.41627 19.00735 21983 ft 238 kts 347°
2026-04-30 13:37 70.43282 19.00761 21991 ft 238 kts 347°
2026-04-30 13:37 70.46597 19.00812 21979 ft 238 kts 347°
2026-04-30 13:38 70.49920 19.00863 21977 ft 239 kts 347°
2026-04-30 13:38 70.51588 19.00889 21980 ft 239 kts 347°
2026-04-30 13:38 70.54899 19.00941 21977 ft 239 kts 347°
2026-04-30 13:39 70.58216 19.00995 21979 ft 237 kts 347°
2026-04-30 13:39 70.61511 19.01044 21972 ft 237 kts 347°
2026-04-30 13:40 70.63178 19.01411 21972 ft 243 kts 354°
2026-04-30 13:40 70.64858 19.02169 21974 ft 245 kts 354°
2026-04-30 13:40 70.66535 19.02935 21972 ft 245 kts 354°
2026-04-30 13:40 70.67659 19.03431 21970 ft 245 kts 354°
2026-04-30 13:41 70.69932 19.04421 21973 ft 246 kts 354°
2026-04-30 13:41 70.71631 19.05170 21970 ft 247 kts 354°
2026-04-30 13:41 70.73334 19.05926 21964 ft 247 kts 354°
2026-04-30 13:41 70.75034 19.06679 21966 ft 247 kts 354°
2026-04-30 13:42 70.76740 19.07439 21965 ft 248 kts 355°
2026-04-30 13:42 70.78421 19.08724 21964 ft 259 kts
2026-04-30 13:42 70.81599 19.08860 21964 ft 210 kts 317°
2026-04-30 13:43 70.82643 19.05947 21967 ft 202 kts 306°
2026-04-30 13:43 70.83643 19.02917 21961 ft 205 kts 309°
2026-04-30 13:43 70.84778 19.00198 21960 ft 210 kts 316°
2026-04-30 13:43 70.86057 18.97921 21963 ft 215 kts 321°
2026-04-30 13:44 70.87389 18.95846 21962 ft 216 kts 322°
2026-04-30 13:44 70.88721 18.93736 21958 ft 215 kts 321°
2026-04-30 13:44 70.90042 18.91579 21956 ft 215 kts 321°
2026-04-30 13:44 70.91347 18.89438 21959 ft 215 kts 321°
2026-04-30 13:45 70.93992 18.85111 21958 ft 215 kts 321°
2026-04-30 13:45 70.95314 18.82945 21954 ft 216 kts 321°
2026-04-30 13:45 70.96636 18.80773 21952 ft 216 kts 321°
2026-04-30 13:46 70.97957 18.78600 21952 ft 215 kts 321°
2026-04-30 13:46 70.98850 18.77129 21951 ft 215 kts 321°
2026-04-30 13:46 71.00153 18.74979 21949 ft 215 kts 321°
2026-04-30 13:46 71.01472 18.72802 21948 ft 215 kts 321°
2026-04-30 13:47 71.02793 18.70616 21951 ft 216 kts 321°
2026-04-30 13:47 71.04113 18.68429 21951 ft 216 kts 321°
2026-04-30 13:47 71.05436 18.66233 21950 ft 216 kts 321°
2026-04-30 13:47 71.06749 18.64051 21947 ft 216 kts 321°
2026-04-30 13:48 71.08071 18.61850 21946 ft 216 kts 320°
2026-04-30 13:48 71.09381 18.59666 21946 ft 216 kts 320°
2026-04-30 13:48 71.10721 18.57429 21943 ft 216 kts 320°
2026-04-30 13:48 71.12045 18.55216 21947 ft 216 kts 320°
2026-04-30 13:49 71.13369 18.52997 21943 ft 216 kts 320°
2026-04-30 13:49 71.14688 18.50785 21942 ft 216 kts 320°
2026-04-30 13:49 71.15994 18.48591 21943 ft 216 kts 320°
2026-04-30 13:49 71.17317 18.46366 21938 ft 216 kts 320°
2026-04-30 13:50 71.18641 18.44134 21937 ft 216 kts 320°
2026-04-30 13:50 71.21286 18.39665 21938 ft 217 kts 320°
2026-04-30 13:50 71.22612 18.37421 21935 ft 217 kts 320°
2026-04-30 13:51 71.23938 18.35172 21936 ft 218 kts 320°
2026-04-30 13:51 71.25259 18.32928 21935 ft 218 kts 320°
2026-04-30 13:51 71.26589 18.30666 21936 ft 219 kts 320°
2026-04-30 13:51 71.27924 18.28392 21931 ft 219 kts 320°
2026-04-30 13:52 71.29263 18.26106 21936 ft 220 kts 320°
2026-04-30 13:52 71.30616 18.23794 21934 ft 220 kts 320°
2026-04-30 13:52 71.31938 18.21532 21930 ft 219 kts 320°
2026-04-30 13:52 71.33290 18.19216 21933 ft 218 kts 320°
2026-04-30 13:53 71.34621 18.16929 21930 ft 218 kts 320°
2026-04-30 13:53 71.35954 18.14635 21929 ft 218 kts 319°
2026-04-30 13:53 71.37258 18.12390 21930 ft 217 kts 319°
2026-04-30 13:53 71.38597 18.10078 21928 ft 217 kts 319°
2026-04-30 13:54 71.39916 18.07799 21931 ft 217 kts 319°
2026-04-30 13:54 71.41244 18.05499 21928 ft 217 kts 319°
2026-04-30 13:54 71.42568 18.03203 21930 ft 217 kts 319°
2026-04-30 13:54 71.43892 18.00904 21927 ft 217 kts 319°
2026-04-30 13:55 71.45214 17.98605 21928 ft 217 kts 319°
2026-04-30 13:55 71.46537 17.96301 21926 ft 217 kts 319°
2026-04-30 13:55 71.47866 17.93983 21929 ft 217 kts 319°
2026-04-30 13:55 71.49186 17.91675 21923 ft 217 kts 319°
2026-04-30 13:56 71.50507 17.89362 21928 ft 218 kts 319°
2026-04-30 13:56 71.51839 17.87025 21925 ft 219 kts 319°
2026-04-30 13:56 71.53154 17.84719 21925 ft 219 kts 319°
2026-04-30 13:56 71.54506 17.82341 21919 ft 220 kts 319°
2026-04-30 13:57 71.55817 17.80032 21918 ft 219 kts 319°
2026-04-30 13:57 71.57144 17.77693 21919 ft 218 kts 319°
2026-04-30 13:57 71.58471 17.75347 21920 ft 218 kts 319°
2026-04-30 13:57 71.59801 17.72992 21919 ft 218 kts 319°
2026-04-30 13:58 71.61126 17.70642 21921 ft 218 kts 318°
2026-04-30 13:58 71.63763 17.65955 21921 ft 217 kts 318°
2026-04-30 13:58 71.65075 17.63618 21916 ft 217 kts 318°
2026-04-30 13:59 71.66386 17.61279 21914 ft 217 kts 318°
2026-04-30 13:59 71.67720 17.58895 21915 ft 217 kts 318°
2026-04-30 13:59 71.69039 17.56534 21913 ft 217 kts 318°
2026-04-30 13:59 71.70364 17.54158 21916 ft 217 kts 318°
2026-04-30 14:00 71.71661 17.51829 21911 ft 217 kts 318°
2026-04-30 14:00 71.74294 17.47090 21909 ft 217 kts 318°
2026-04-30 14:00 71.75607 17.44719 21910 ft 217 kts 317°
2026-04-30 14:01 71.76924 17.42338 21903 ft 217 kts 317°
2026-04-30 14:01 71.78231 17.39973 21905 ft 217 kts 317°
2026-04-30 14:01 71.79543 17.37594 21907 ft 217 kts 317°
2026-04-30 14:01 71.80854 17.35214 21907 ft 217 kts 317°
2026-04-30 14:02 71.82172 17.32815 21914 ft 217 kts 317°
2026-04-30 14:02 71.83486 17.30420 21911 ft 217 kts 317°
2026-04-30 14:02 71.84795 17.28031 21910 ft 217 kts 317°
2026-04-30 14:02 71.86107 17.25633 21907 ft 217 kts 317°
2026-04-30 14:03 71.87417 17.23234 21908 ft 217 kts 317°
2026-04-30 14:03 71.88724 17.20838 21906 ft 217 kts 317°
2026-04-30 14:03 71.90037 17.18426 21901 ft 217 kts 317°
2026-04-30 14:03 71.91328 17.16051 21907 ft 217 kts 317°
2026-04-30 14:04 71.92635 17.13641 21897 ft 217 kts 317°
2026-04-30 14:04 71.93954 17.11205 21904 ft 217 kts 317°
2026-04-30 14:04 71.95253 17.08805 21904 ft 217 kts 317°
2026-04-30 14:04 71.96558 17.06388 21902 ft 217 kts 317°
2026-04-30 14:05 71.97868 17.03957 21899 ft 217 kts 317°
2026-04-30 14:05 71.99175 17.01530 21903 ft 216 kts 317°
2026-04-30 14:05 72.00620 16.99739 21897 ft 236 kts 334°
2026-04-30 14:05 72.02274 16.99095 21904 ft 240 kts 338°
2026-04-30 14:06 72.03944 16.98517 21895 ft 241 kts 338°
2026-04-30 14:06 72.07275 16.97266 21898 ft 241 kts 337°
2026-04-30 14:07 72.10605 16.96011 21896 ft 241 kts 337°
2026-04-30 14:07 72.12276 16.95382 21897 ft 241 kts 337°
2026-04-30 14:07 72.13944 16.94751 21894 ft 242 kts 337°
2026-04-30 14:08 72.17271 16.93490 21895 ft 242 kts 337°
2026-04-30 14:08 72.18937 16.92856 21895 ft 242 kts 337°
2026-04-30 14:08 72.22276 16.91583 21890 ft 242 kts 337°
2026-04-30 14:09 72.23955 16.90941 21894 ft 242 kts 337°
2026-04-30 14:09 72.25626 16.90301 21897 ft 242 kts 337°
2026-04-30 14:09 72.28970 16.89016 21884 ft 242 kts 337°
2026-04-30 14:10 72.30641 16.88373 21887 ft 242 kts 337°
2026-04-30 14:10 72.32307 16.87730 21887 ft 242 kts 337°
2026-04-30 14:10 72.33979 16.87084 21883 ft 242 kts 336°
2026-04-30 14:10 72.35646 16.86438 21888 ft 242 kts 336°
2026-04-30 14:11 72.37327 16.85786 21887 ft 242 kts 336°
2026-04-30 14:11 72.38999 16.85135 21888 ft 242 kts 336°
2026-04-30 14:11 72.40647 16.84494 21891 ft 242 kts 336°
2026-04-30 14:11 72.42332 16.83836 21889 ft 242 kts 336°
2026-04-30 14:12 72.44010 16.83180 21886 ft 242 kts 336°
2026-04-30 14:12 72.45659 16.82534 21890 ft 242 kts 336°
2026-04-30 14:12 72.47355 16.81869 21886 ft 242 kts 336°
2026-04-30 14:12 72.48465 16.81433 21881 ft 242 kts 336°
2026-04-30 14:13 72.50682 16.80560 21885 ft 242 kts 336°
2026-04-30 14:13 72.52357 16.79899 21878 ft 242 kts 336°
2026-04-30 14:13 72.54033 16.79237 21877 ft 242 kts 336°
2026-04-30 14:13 72.55702 16.78575 21876 ft 243 kts 336°
2026-04-30 14:14 72.57386 16.77907 21876 ft 243 kts 336°
2026-04-30 14:14 72.59040 16.77250 21876 ft 243 kts 336°
2026-04-30 14:14 72.60738 16.76574 21877 ft 243 kts 336°
2026-04-30 14:14 72.62394 16.75913 21876 ft 243 kts 336°
2026-04-30 14:15 72.64068 16.75243 21873 ft 243 kts 336°
2026-04-30 14:15 72.65747 16.74571 21874 ft 243 kts 336°
2026-04-30 14:15 72.67425 16.73898 21872 ft 243 kts 336°
2026-04-30 14:15 72.69106 16.73222 21873 ft 243 kts 336°
2026-04-30 14:16 72.70782 16.72547 21873 ft 243 kts 336°
2026-04-30 14:16 72.72467 16.71867 21874 ft 243 kts 336°
2026-04-30 14:16 72.74140 16.71190 21874 ft 243 kts 336°
2026-04-30 14:16 72.75822 16.70509 21871 ft 243 kts 336°
2026-04-30 14:17 72.77507 16.69825 21871 ft 243 kts 336°
2026-04-30 14:17 72.79186 16.69142 21870 ft 243 kts 336°
2026-04-30 14:17 72.80869 16.68457 21872 ft 243 kts 336°
2026-04-30 14:17 72.82552 16.67770 21870 ft 243 kts 336°
2026-04-30 14:18 72.84232 16.67082 21870 ft 243 kts 336°
2026-04-30 14:18 72.85910 16.66395 21868 ft 243 kts 336°
2026-04-30 14:18 72.89271 16.65014 21866 ft 243 kts 336°
2026-04-30 14:19 72.92649 16.63620 21865 ft 244 kts 336°
2026-04-30 14:19 72.94306 16.62935 21862 ft 244 kts 336°
2026-04-30 14:19 72.95993 16.62235 21862 ft 244 kts 336°
2026-04-30 14:20 72.97680 16.61534 21862 ft 244 kts 336°
2026-04-30 14:20 72.99363 16.60834 21862 ft 244 kts 336°
2026-04-30 14:20 73.02738 16.59426 21861 ft 244 kts 336°
2026-04-30 14:21 73.04431 16.58717 21859 ft 244 kts 336°
2026-04-30 14:21 73.06116 16.58010 21856 ft 245 kts 336°
2026-04-30 14:21 73.09501 16.56586 21854 ft 245 kts 336°
2026-04-30 14:22 73.11198 16.55870 21853 ft 245 kts 335°
2026-04-30 14:22 73.14570 16.54444 21853 ft 246 kts 336°
2026-04-30 14:22 73.16290 16.53714 21854 ft 246 kts 335°
2026-04-30 14:23 73.19662 16.52278 21850 ft 246 kts 335°
2026-04-30 14:23 73.23064 16.50825 21848 ft 246 kts 335°
2026-04-30 14:24 73.26473 16.49362 21850 ft 247 kts 336°
2026-04-30 14:24 73.28170 16.48632 21854 ft 247 kts 336°
2026-04-30 14:25 73.31579 16.47161 21844 ft 247 kts 336°
2026-04-30 14:25 73.35004 16.45676 21844 ft 248 kts 336°
2026-04-30 14:26 73.38429 16.44186 21846 ft 248 kts 336°
2026-04-30 14:26 73.40122 16.43448 21848 ft 248 kts 336°
2026-04-30 14:26 73.43551 16.41947 21844 ft 249 kts 336°
2026-04-30 14:27 73.45273 16.41190 21841 ft 249 kts 336°
2026-04-30 14:27 73.46994 16.40434 21843 ft 249 kts 336°
2026-04-30 14:27 73.48719 16.39673 21841 ft 250 kts 336°
2026-04-30 14:28 73.52175 16.38145 21839 ft 250 kts 336°
2026-04-30 14:28 73.53905 16.37378 21836 ft 251 kts 336°
2026-04-30 14:28 73.55623 16.36614 21837 ft 251 kts 336°
2026-04-30 14:28 73.57349 16.35846 21837 ft 251 kts 336°
2026-04-30 14:29 73.60844 16.34284 21836 ft 252 kts 336°
2026-04-30 14:29 73.63730 16.32990 21836 ft 252 kts 336°
2026-04-30 14:30 73.69527 16.30376 21834 ft 253 kts 336°
2026-04-30 14:31 73.73019 16.28793 21833 ft 254 kts 336°
2026-04-30 14:31 73.75944 16.27462 21831 ft 254 kts 336°
2026-04-30 14:31 73.77696 16.26662 21830 ft 255 kts 336°
2026-04-30 14:32 73.81223 16.25048 21825 ft 255 kts 337°
2026-04-30 14:32 73.82984 16.24239 21824 ft 256 kts 337°
2026-04-30 14:32 73.84756 16.23424 21822 ft 256 kts 337°
2026-04-30 14:33 73.86524 16.22608 21816 ft 256 kts 337°
2026-04-30 14:33 73.90059 16.20972 21825 ft 257 kts 337°
2026-04-30 14:33 73.91819 16.20154 21823 ft 257 kts 337°
2026-04-30 14:34 73.93600 16.19326 21822 ft 257 kts 337°
2026-04-30 14:34 73.95376 16.18497 21822 ft 258 kts 338°
2026-04-30 14:34 73.97154 16.17667 21819 ft 258 kts 338°
2026-04-30 14:34 73.98943 16.16829 21815 ft 259 kts 338°
2026-04-30 14:35 74.02517 16.15150 21818 ft 259 kts 338°
2026-04-30 14:35 74.04300 16.14310 21820 ft 260 kts 338°
2026-04-30 14:35 74.06101 16.13459 21821 ft 260 kts 338°
2026-04-30 14:36 74.07892 16.12611 21820 ft 260 kts 338°
2026-04-30 14:36 74.09666 16.11768 21819 ft 261 kts 338°
2026-04-30 14:36 74.11486 16.10903 21814 ft 261 kts 338°
2026-04-30 14:36 74.13264 16.10056 21819 ft 261 kts 339°
2026-04-30 14:37 74.15065 16.09195 21817 ft 262 kts 339°
2026-04-30 14:37 74.16873 16.08329 21819 ft 262 kts 339°
2026-04-30 14:37 74.18684 16.07460 21817 ft 262 kts 339°
2026-04-30 14:37 74.20493 16.06590 21820 ft 263 kts 339°
2026-04-30 14:38 74.22318 16.05710 21814 ft 263 kts 339°
2026-04-30 14:38 74.24134 16.04833 21812 ft 264 kts 339°
2026-04-30 14:38 74.25958 16.03950 21811 ft 264 kts 340°
2026-04-30 14:38 74.27781 16.03065 21812 ft 264 kts 340°
2026-04-30 14:39 74.29608 16.02176 21811 ft 265 kts 340°
2026-04-30 14:39 74.31434 16.01286 21810 ft 265 kts 340°
2026-04-30 14:39 74.33258 16.00395 21810 ft 266 kts 340°
2026-04-30 14:40 74.36939 15.98590 21810 ft 266 kts 340°
2026-04-30 14:40 74.38755 15.97696 21808 ft 267 kts 340°
2026-04-30 14:40 74.40600 15.96786 21809 ft 267 kts 341°
2026-04-30 14:40 74.42444 15.95875 21808 ft 268 kts 341°
2026-04-30 14:41 74.44293 15.94959 21803 ft 268 kts 341°
2026-04-30 14:41 74.46143 15.94040 21804 ft 268 kts 341°
2026-04-30 14:41 74.47992 15.93120 21807 ft 269 kts 341°
2026-04-30 14:41 74.49848 15.92194 21801 ft 269 kts 341°
2026-04-30 14:42 74.51704 15.91265 21800 ft 269 kts 341°
2026-04-30 14:42 74.53564 15.90333 21802 ft 270 kts 341°
2026-04-30 14:42 74.55419 15.89401 21798 ft 270 kts 342°
2026-04-30 14:42 74.57291 15.88458 21798 ft 270 kts 342°
2026-04-30 14:43 74.59149 15.87519 21800 ft 270 kts 342°
2026-04-30 14:43 74.61023 15.86571 21802 ft 271 kts 342°
2026-04-30 14:43 74.62895 15.85621 21796 ft 271 kts 342°
2026-04-30 14:43 74.64740 15.84683 21796 ft 271 kts 342°
2026-04-30 14:44 74.66636 15.83716 21798 ft 272 kts 342°
2026-04-30 14:44 74.68491 15.82769 21792 ft 272 kts 342°
2026-04-30 14:44 74.70360 15.81811 21792 ft 272 kts 342°
2026-04-30 14:44 74.72239 15.80846 21794 ft 272 kts 342°
2026-04-30 14:45 74.74120 15.79878 21794 ft 273 kts 342°
2026-04-30 14:45 74.76001 15.78907 21793 ft 273 kts 343°
2026-04-30 14:45 74.77893 15.77929 21795 ft 273 kts 343°
2026-04-30 14:45 74.79787 15.76947 21794 ft 274 kts 343°
2026-04-30 14:46 74.81651 15.75978 21794 ft 274 kts 343°
2026-04-30 14:46 74.83540 15.74994 21787 ft 274 kts 343°
2026-04-30 14:46 74.85453 15.73994 21791 ft 274 kts 343°
2026-04-30 14:46 74.87323 15.73015 21788 ft 275 kts 343°
2026-04-30 14:47 74.89222 15.72019 21772 ft 275 kts 343°
2026-04-30 14:47 74.91121 15.71019 21778 ft 275 kts 343°
2026-04-30 14:47 74.93025 15.70015 21786 ft 275 kts 343°
2026-04-30 14:47 74.94923 15.69011 21785 ft 276 kts 343°
2026-04-30 14:48 74.96831 15.67999 21788 ft 276 kts 344°
2026-04-30 14:48 74.98708 15.67002 21783 ft 276 kts 344°
2026-04-30 14:48 75.00616 15.65986 21787 ft 276 kts 344°
2026-04-30 14:48 75.02514 15.64972 21782 ft 276 kts 344°
2026-04-30 14:49 75.04420 15.63951 21778 ft 277 kts 344°
2026-04-30 14:49 75.06338 15.62922 21783 ft 277 kts 344°
2026-04-30 14:49 75.08247 15.61895 21781 ft 277 kts 344°
2026-04-30 14:49 75.10159 15.60863 21781 ft 277 kts 344°
2026-04-30 14:50 75.13988 15.58789 21778 ft 278 kts 344°
2026-04-30 14:50 75.15906 15.57746 21780 ft 278 kts 344°
2026-04-30 14:51 75.19717 15.55666 21777 ft 278 kts 344°
2026-04-30 14:51 75.21633 15.54616 21777 ft 278 kts 345°
2026-04-30 14:51 75.25482 15.52500 21769 ft 279 kts 345°
2026-04-30 14:52 75.27402 15.51439 21775 ft 279 kts 345°
2026-04-30 14:52 75.31257 15.49303 21772 ft 280 kts 345°
2026-04-30 14:52 75.33180 15.48233 21769 ft 280 kts 345°
2026-04-30 14:53 75.37045 15.46075 21769 ft 280 kts 345°
2026-04-30 14:53 75.38957 15.45002 21769 ft 280 kts 345°
2026-04-30 14:54 75.42827 15.42824 21771 ft 281 kts 345°
2026-04-30 14:54 75.46696 15.40634 21766 ft 281 kts 345°
2026-04-30 14:55 75.50577 15.38427 21763 ft 282 kts 345°
2026-04-30 14:55 75.52515 15.37319 21764 ft 282 kts 345°
2026-04-30 14:55 75.56411 15.35086 21760 ft 282 kts 345°
2026-04-30 14:56 75.60302 15.32842 21757 ft 283 kts 345°
2026-04-30 14:56 75.64183 15.30593 21758 ft 283 kts 346°
2026-04-30 14:57 75.66128 15.29461 21757 ft 283 kts 345°
2026-04-30 14:57 75.70036 15.27178 21749 ft 284 kts 346°
2026-04-30 14:58 75.73947 15.24880 21764 ft 284 kts 346°
2026-04-30 14:58 75.75906 15.23724 21760 ft 284 kts 346°
2026-04-30 14:58 75.79831 15.21400 21754 ft 285 kts 346°
2026-04-30 14:59 75.83740 15.19073 21750 ft 285 kts 346°
2026-04-30 15:00 75.89637 15.15536 21748 ft 286 kts 346°
2026-04-30 15:00 75.93570 15.13162 21745 ft 286 kts 346°
2026-04-30 15:01 75.97519 15.10765 21735 ft 287 kts 346°
2026-04-30 15:01 75.98829 15.09967 21735 ft 287 kts 346°
2026-04-30 15:01 76.03422 15.07157 21740 ft 287 kts 346°
2026-04-30 15:02 76.05421 15.05927 21739 ft 288 kts 346°
2026-04-30 15:02 76.07378 15.04721 21741 ft 288 kts 346°
2026-04-30 15:03 76.13337 15.01027 21738 ft 288 kts 346°
2026-04-30 15:03 76.17310 14.98546 21738 ft 288 kts 346°
2026-04-30 15:04 76.21282 14.96052 21736 ft 289 kts 346°
2026-04-30 15:04 76.27221 14.92295 21734 ft 289 kts 347°
2026-04-30 15:05 76.33214 14.88472 21731 ft 290 kts 347°
2026-04-30 15:06 76.37199 14.85877 21731 ft 290 kts 346°
2026-04-30 15:06 76.41193 14.83254 21730 ft 290 kts 347°
2026-04-30 15:07 76.45188 14.80621 21725 ft 291 kts 347°
2026-04-30 15:07 76.49170 14.77978 21726 ft 291 kts 347°
2026-04-30 15:08 76.53172 14.75307 21722 ft 291 kts 347°
2026-04-30 15:08 76.59202 14.71253 21723 ft 292 kts 347°
2026-04-30 15:09 76.63211 14.68537 21717 ft 292 kts 347°
2026-04-30 15:09 76.67217 14.65807 21720 ft 293 kts 347°
2026-04-30 15:10 76.71247 14.63045 21716 ft 294 kts 347°
2026-04-30 15:11 76.79330 14.57453 21716 ft 294 kts 347°
2026-04-30 15:11 76.83376 14.54629 21714 ft 294 kts 347°
2026-04-30 15:12 76.89436 14.50366 21712 ft 295 kts 347°
2026-04-30 15:13 76.93491 14.47491 21711 ft 295 kts 347°
2026-04-30 15:14 77.01613 14.41680 21713 ft 296 kts 347°
2026-04-30 15:14 77.07693 14.37281 21710 ft 297 kts 347°
2026-04-30 15:16 77.17914 14.29807 20505 ft 297 kts 347°
2026-04-30 15:17 77.26056 14.23770 19153 ft 296 kts 347°
2026-04-30 15:18 77.36210 14.16123 17479 ft 303 kts 348°
2026-04-30 15:19 77.42606 14.11252 16397 ft 315 kts 348°